Regional Weather Roundup
Issued by NWS

Home | Current Version | Previous Version | Graphics & Text | Print | Product List | Glossary On
Versions: 1 2 3 4 5 6 7 8 9 10 11 12 13 14 15 16 17 18 19 20 21 22 23 24 25 26 27 28 29 30 31 32 33 34 35 36 37 38 39 40 41 42 43 44 45 46 47 48 49 50
000
ASUS43 KMPX 240101
RWRMN
WEATHER ROUNDUP FOR MINNESOTA
NATIONAL WEATHER SERVICE TWIN CITIES/CHANHASSEN MN
800 PM CDT WED JUL 23 2014


NOTE: "FAIR" INDICATES FEW OR NO CLOUDS BELOW 12,000 FEET WITH NO
SIGNIFICANT WEATHER AND/OR OBSTRUCTIONS TO VISIBILITY. N/A MEANS
CURRENT SKY AND/OR WEATHER CONDITIONS ARE NOT AVAILABLE.

MNZ060>063-068>070-240200-
   Twin Cities Metro

CITY           SKY/WX    TMP DP  RH WIND       PRES   REMARKS
TWIN CITIES    PTCLDY    78  51  38 N6        30.16F
ST PAUL        CLEAR     76  52  43 N7        30.16F
CRYSTAL        MOCLDY    78  52  40 N6        30.16S
BLAINE         PTCLDY    77  55  47 N6        30.17F
LAKEVILLE      CLEAR     73  54  49 NW7       30.17S
EDEN PRAIRIE   CLEAR     77  50  38 NW6       30.16F
SOUTH ST PAUL  CLEAR     77  48  35 N6        30.16S
LAKE ELMO      FAIR      73  55  53 CALM      30.18S
$$
MNZ001>005-007-008-013>017-022>024-027-028-240200-
   Northwest Minnesota

CITY           SKY/WX    TMP DP  RH WIND       PRES   REMARKS
BEMIDJI        PTCLDY    71  54  55 N6        30.20F
HALLOCK        SUNNY     73  50  43 CALM      30.19F
ROSEAU         SUNNY     68  57  68 E3        30.21F
THIEF RVR FALL SUNNY     70  55  60 W8        30.20S
CROOKSTON      SUNNY     72  59  64 N5        30.20F
FOSSTON        PTCLDY    73  59  60 CALM      30.20F
DETROIT LAKES  CLEAR     72  55  56 NW3       30.22F
MOORHEAD       CLEAR     73  61  64 NE5       30.20S
PARK RAPIDS    CLEAR     73  53  49 N6        30.20F
$$
MNZ006-009>011-018-025>026-240200-
   North Central Minnesota

CITY           SKY/WX    TMP DP  RH WIND       PRES   REMARKS
BAUDETTE       CLEAR     68  50  52 W5        30.22F
FLAG ISLAND    CLEAR     70  48  46 E3        30.20F
INTL FALLS     CLEAR     68  50  52 CALM      30.20F
WASKISH        PTCLDY    70  55  60 CALM      30.20S
LONGVILLE      PTCLDY    70  55  60 CALM      30.20S
GRAND RAPIDS   MOCLDY    70  52  52 NE3       30.20F
CRANE LAKE     CLEAR     63  57  82 CALM      30.22F
ORR            CLEAR     64  54  68 CALM      30.19F
COOK           CLEAR     66  52  59 CALM      30.21F
$$
MNZ012-019>021-037-240200-
   Northeast Minnesota

CITY           SKY/WX    TMP DP  RH WIND       PRES   REMARKS
DULUTH         PTCLDY    68  54  60 E5        30.19F
ELY            CLEAR     66  48  52 CALM      30.21F
HIBBING        CLEAR     71  50  47 N5        30.20F
EVELETH        CLEAR     68  48  49 N3        30.22S
DULUTH HARBOR  CLEAR     64  57  77 NE6       30.18F
TWO HARBORS    CLEAR     66  54  63 CALM      30.18S
SILVER BAY     CLEAR     61  57  88 CALM      30.18S
GRAND MARAIS     N/A     53  51  93 CALM      30.19F
G MARAIS ARPRT CLEAR     61  46  59 N5        30.22F
$$
MNZ029>031-032-039>041-046>048-054>057-064-240200-
   West Central Minnesota

CITY           SKY/WX    TMP DP  RH WIND       PRES   REMARKS
FERGUS FALLS   CLEAR     73  55  53 NE5       30.19S
WHEATON        CLEAR     73  59  60 CALM      30.19F
MORRIS         CLEAR     73  63  68 NE3       30.18F
ALEXANDRIA     CLEAR     75  54  47 N6        30.21F
ELBOW LAKE     FAIR      73  58  59 N3        30.19F
WADENA         CLEAR     70  55  60 N7        30.20F
GLENWOOD       CLEAR     73  57  56 N6        30.21F
APPLETON       CLEAR     77  55  47 NE5       30.18S
BENSON         CLEAR     73  57  56 NE5       30.18F
ORTONVILLE     CLEAR     75  57  53 E3        30.18F
MADISON        CLEAR     77  59  53 E7        30.18F
WILLMAR        FAIR      75  54  46 N3        30.20F
$$
MNZ033>034-036-042>043-049>051-058-059-240200-
   Central Minnesota

CITY           SKY/WX    TMP DP  RH WIND       PRES   REMARKS
ST CLOUD       CLEAR     78  51  38 N3        30.18F
SAUK CENTRE    FAIR      74  55  51 CALM      30.20F
PAYNESVILLE    CLEAR     73  53  50 N5        30.20F
AITKIN         CLEAR     73  55  53 CALM      30.18S
PINE RIVER     CLEAR     72  57  60 CALM      30.22F
BRAINERD       CLEAR     73  53  49 N3        30.20S
STAPLES        CLEAR     72  54  53 N3        30.20S
LONG PRAIRIE   FAIR      72  55  56 CALM      30.20F
LITTLE FALLS   CLEAR     72  54  53 CALM      30.19F
LITCHFIELD     CLEAR     75  54  46 NE3       30.20S
BUFFALO        CLEAR     76  49  38 N5        30.19S
MAPLE LAKE     CLEAR     75  57  52 N5        30.19F
$$
MNZ037-044-045-052-053-240200-
   East Central Minnesota

CITY           SKY/WX    TMP DP  RH WIND       PRES   REMARKS
PRINCETON      CLEAR     75  54  46 N3        30.18F
MORA           CLEAR     70  54  56 CALM      30.20F
CAMBRIDGE      CLEAR     77  59  53 NW3       30.17S
RUSH CITY      CLEAR     73  56  54 CALM      30.18S
MOOSE LAKE     PTCLDY    68  57  68 CALM      30.17S
HINCKLEY       FAIR      73  59  60 CALM      30.18S
CLOQUET        CLEAR     72  50  46 N3        30.19S
MCGREGOR       CLEAR     72  57  60 CALM      30.19S
$$
MNZ071>073-080-081-089-090-097-098-240200-
   Southwest Minnesota

CITY           SKY/WX    TMP DP  RH WIND       PRES   REMARKS
MONTEVIDEO     CLEAR     75  57  53 E6        30.19F
GRANITE FALLS  CLEAR     75  57  53 NE7       30.20S
CANBY          CLEAR     75  58  55 E5        30.19F
MARSHALL       CLEAR     75  55  50 NE7       30.17F
REDWOOD FALLS  CLEAR     77  54  44 N6        30.18F
OLIVIA         CLEAR     73  54  49 NE5       30.18F
PIPESTONE      CLEAR     75  54  46 CALM      30.20F
WINDOM         CLEAR     75  57  53 N3        30.19F
WORTHINGTON    CLEAR     75  55  50 NE6       30.21F
JACKSON        CLEAR     73  54  49 NE5       30.20F
TRACY          CLEAR     75  58  55 NE5       30.19F
SLAYTON        CLEAR     74  51  44 CALM      30.21F
$$
MNZ065>067-074>077-082>085-091>093-240200-
   South Central Minnesota

CITY           SKY/WX    TMP DP  RH WIND       PRES   REMARKS
MANKATO        CLEAR     75  54  46 N6        30.17S
NEW ULM        CLEAR     75  54  46 N3        30.17F
ST JAMES       CLEAR     77  57  50 CALM      30.18F
FAIRMONT       CLEAR     75  55  50 N3        30.18F
GLENCOE        CLEAR     75  46  35 N3        30.18S
FARIBAULT      CLEAR     77  48  36 CALM      30.18S
OWATONNA       CLEAR     75  54  46 NW5       30.18S
WASECA         PTCLDY    73  52  46 N3        30.19S
ALBERT LEA     CLEAR     73  57  56 CALM      30.18S
$$
MNZ078>079-086>088-094>096-240200-
   Southeast Minnesota

CITY           SKY/WX    TMP DP  RH WIND       PRES   REMARKS
ROCHESTER      CLEAR     72  56  57 N7        30.18F
RED WING       CLEAR     77  54  44 CALM      30.15S
STANTON        MOCLDY    77  55  46 NW6       30.15S
DODGE CENTER   PTCLDY    73  61  64 N3        30.18S
WINONA         CLEAR     77  55  47 NW5       30.15S
AUSTIN         CLEAR     73  55  53 CALM      30.17S
PRESTON        CLEAR     71  62  74 N3        30.18S
$$
ABBREVIATIONS USED IN REMARKS
   TC - TEMPERATURES IN CELSIUS
  WCI - WIND CHILL INDEX
   HX - HEAT INDEX
  VSB - VISIBILITY
$$



USA.gov is the U.S. government's official web portal to all federal, state and local government web resources and services.